Location: Unspecified
(47.9110°N, 14.3980°E)
Time: 05:40:54
(UTC+00:00)

Resurs 1-3 - Pass Details

Date: 06 August 2020
Orbit: 629 x 632 km, 97.9° (Epoch: 20 September)

Event Time Altitude Azimuth Distance (km) Brightness Sun altitude
Exits shadow 19:30:23 - 176° (S) 2,812 6.5 -9.5°
Reaches altitude 10° 19:32:22 10° 180° (S) 2,006 5.8 -9.7°
Maximum altitude 19:36:40 56° 259° (W) 752 4.2 -10.3°
Drops below altitude 10° 19:41:00 10° 339° (NNW) 2,025 7.2 -10.8°
Sets 19:43:15 0° 343° (NNW) 2,938 8.1 -11.1°
